Regional Weather Roundup
Issued by NWS Charleston, SC

Current Version | Previous Version | Graphics & Text | Print | Product List | Glossary On
Versions: 1 2 3 4 5 6 7 8 9 10 11 12 13 14 15 16 17 18 19 20 21 22 23 24 25 26 27 28 29 30 31 32 33 34 35 36 37 38 39 40 41 42 43 44 45 46 47 48 49 50
000
ASUS42 KCHS 152227
RWRCHS

Regional Weather Roundup
National Weather Service Charleston SC
500 PM EST FRI DEC 15 2017

NOTE: "fair" indicates few or no clouds below 12,000 feet with no
significant weather and/or obstructions to visibility.

Not all stations are quality controlled. Use data with caution,
especially dewpoint observations.

SCZ027-030-031-034>040-042>050-152300-
...Southeast South Carolina...

CITY           SKY/WX    TMP DP  RH WIND       PRES   REMARKS
N Charleston   CLOUDY    57  42  57 W7        29.99R
Waterfront Prk   N/A     58  44  59 VRB3      29.85R
Mount Pleasant FAIR      57  43  58 SW5       29.98F
Johns Island   FAIR      57  43  58 SW5       30.00F
Pinopolis        N/A     55  46  71 SW7       29.89R
Moncks Corner  FAIR      54  37  54 SW9       29.97F
Summerville    FAIR      55  39  54 SW5       29.99F
Beaufort MCAS  CLOUDY    57  44  62 SW7       30.01S
Beaufort Arpt  FAIR      55  43  62 SW5       30.01F HAZE
Hilton Head Is MOCLDY    57  43  58 W8        30.02S
Walterboro     CLOUDY    54  37  54 W6        30.00S
Allendale      FAIR      54  37  54 W5        30.01R

...Southern Midlands and Pee Dee...

CITY           SKY/WX    TMP DP  RH WIND       PRES   REMARKS
Georgetown     FAIR      54  41  62 SW7       29.97F
Kingstree      FAIR      54  37  54 CALM      29.96R
Orangeburg     CLOUDY    54  37  52 W8        29.98R
Barnwell         N/A     55  39  54 W9        30.01R
Aiken          FAIR      50  32  50 W10       30.03R
Manning        FAIR     N/A N/A N/A MISG      29.97R
Columbia       CLOUDY    56  36  47 W13       29.96R
Sumter         CLOUDY    56  35  46 W8        29.93R
Florence       CLOUDY    56  36  47 W6        29.95R
Myrtle Beach   CLOUDY    57  41  55 SW5       29.96R
N Myrtle Beach CLOUDY    57  39  51 SW10      29.94R

$$

GAZ063-065-086>088-099>101-113>116-118-119-134>141-150-152300-
...Southeast Georgia...

CITY           SKY/WX    TMP DP  RH WIND       PRES   REMARKS
Savannah Arpt  CLOUDY    57  43  59 SW8       30.03S
Hunter AAF       N/A     57  43  60 SW9       30.01F
Fort Stewart     N/A     56  42  58 W9          N/A
Statesboro     CLOUDY    55  35  46 W10       30.05R
Sylvania       CLOUDY    55  40  57 W5        30.04R
Claxton        FAIR      56  42  57 SW3       30.05R

...CSRA, Central and far Southeast Georgia...

CITY           SKY/WX    TMP DP  RH WIND       PRES   REMARKS
Thomson        CLOUDY    47  28  47 NW9       30.10R
Augusta-Bush   CLOUDY    53  31  42 W20G25    30.03R
Augusta-Daniel CLOUDY    53  31  42 W9        30.03R
Swainsboro     FAIR      52  37  58 W8        30.05S
Vidalia        CLOUDY    54  39  58 W7        30.07R
Eastman        FAIR      53  28  38 W6        30.10S
Hazlehurst     FAIR      54  32  43 CALM      30.07R
Alma           CLOUDY    55  42  61 SW7       30.08R
Waycross       CLOUDY    56  40  55 W6        30.08F
Jesup          CLOUDY    57  43  58 CALM      30.07S
Baxley         FAIR      52  37  58 W5        30.07S
Brunswick      CLOUDY    59  37  44 W6        30.07S
Saint Simons   CLOUDY    63  40  42 NW9       30.06R

$$

SCZ027-028-034-036>038-045-046-048>050-GAZ119-141-152300-
...Lake and Supplemental Coastal Observations...

STATION/POSITION TIME  TEMP    WIND        PRES    WAVE   SWELL
                       AIR SEA DIR/SP/G            HT/PER HT/PER/DIR
                 (UTC) (F)     (DEG/KT/KT) (MB)    (FT/S) (FT/S/D)
Winyah Bay       2145   57     260/  6     1015.0R
Lake Murray      2150   54     270/ 14/ 17 1013.5R
ACE Basin NERRS  2145   57     230/  3     1016.0S
Fort Pulaski     2200   57 53  250/  6/  9 1017.1
Sapelo Island    2200   59     280/  9     1018.0

$$

ANZ835-935-AMZ111-154-330-350-352-354-370-450-454-472-152300-
...C-MAN and Buoy Observations...

STATION/POSITION TIME  TEMP    WIND        PRES    WAVE   SWELL
                       AIR SEA DIR/SP/G            HT/PER HT/PER/DIR
                 (UTC) (F)     (DEG/KT/KT) (MB)    (FT/S) (FT/S/D)
Buoy 41004       2210   63 73  270/ 25/ 29 1015.8
Buoy 41008       2150   60 59  290/ 14/ 16 1017.2R   1/11
Folly Beach CMAN 2200   55     220/  8/  9 1016.3R
Capers Nearshore 2208   52 55  240/ 14/ 19 1015.3R


STATION/POSITION TIME  TEMP    WIND        PRES    WAVE   SWELL
                       AIR SEA DIR/SP/G            HT/PER HT/PER/DIR
                 (UTC) (F)     (DEG/KT/KT) (MB)    (FT/S) (FT/S/D)
5E St. Marys GA  2130      62                N/A     1/11
Frying Pan Buoy  2210   62 67  260/ 19/ 23 1014.0
Buoy 41025       2210   63 73  250/ 25/ 31 1012.1
Cape Lookout NC  2200          240/ 11/ 14 1013.1R
Buoy 41002       2150   72 74  270/ 16/ 19 1014.7R   5/ 7   2/120/11
Buoy 41010       NOT AVBL
St Augustine FL  2200   70 64  300/  4/  5 1017.9R


$$




USA.gov is the U.S. government's official web portal to all federal, state and local government web resources and services.